GW7938 Weather Reports


Display with metric or nautical units.
time (UTC)temp
F
wind
direction
speed
MPH
gust
MPH
rain 1hr
in
rain 24hr
in
rain mn
in
humidity
%
barometer
mb
20260901181527 67 212 2.0 6.0 0.00 0.00 0.00 66 1019.6
20260901180525 67 218 4.0 9.0 0.00 0.00 0.00 65 1019.8
20260901171023 69 196 4.0 11.0 0.00 0.00 0.00 62 1019.6
20260901170021 69 224 4.0 9.0 0.00 0.00 0.00 63 1019.6
20260901165019 69 188 4.0 9.0 0.00 0.00 0.00 62 1019.5
20260901164021 70 220 5.0 11.0 0.00 0.00 0.00 61 1019.5
20260901162533 70 226 4.0 8.0 0.00 0.00 0.00 59 1019.5
20260901161531 70 215 4.0 4.0 0.00 0.00 0.00 60 1019.5
20260901154531 72 232 3.0 6.0 0.00 0.00 0.00 60 1019.6
20260901153549 71 239 6.0 11.0 0.00 0.00 0.00 61 1019.6
20260901152545 71 249 4.0 9.0 0.00 0.00 0.00 61 1019.7
20260901151523 71 243 4.0 9.0 0.00 0.00 0.00 62 1019.7
20260901150542 70 215 3.0 7.0 0.00 0.00 0.00 63 1019.8
20260901145520 70 238 4.0 9.0 0.00 0.00 0.00 61 1019.9
20260901144518 70 219 4.0 9.0 0.00 0.00 0.00 60 1019.8
20260901143516 70 214 4.0 11.0 0.00 0.00 0.00 60 1019.8
20260901142534 71 234 4.0 9.0 0.00 0.00 0.00 61 1020.0
20260901141532 71 226 3.0 6.0 0.00 0.00 0.00 63 1020.1
20260901141018 72 225 5.0 9.0 0.00 0.00 0.00 60 1020.2
20260901140016 73 239 6.0 13.0 0.00 0.00 0.00 55 1020.0
20260901135034 73 216 6.0 12.0 0.00 0.00 0.00 53 1020.0
20260901134033 73 205 6.0 11.0 0.00 0.00 0.00 53 1020.0
20260901133031 73 226 4.0 10.0 0.00 0.00 0.00 52 1019.8
20260901132029 73 206 5.0 11.0 0.00 0.00 0.00 53 1020.0
20260901131027 73 206 5.0 13.0 0.00 0.00 0.00 53 1020.1
20260901130035 73 232 5.0 12.0 0.00 0.00 0.00 55 1020.2
20260901125034 73 235 5.0 11.0 0.00 0.00 0.00 57 1020.1
20260901124031 72 204 5.0 12.0 0.00 0.00 0.00 58 1020.1
20260901123050 72 225 6.0 12.0 0.00 0.00 0.00 57 1020.1
20260901122048 72 224 6.0 9.0 0.00 0.00 0.00 58 1020.2
20260901121521 72 214 4.0 9.0 0.00 0.00 0.00 58 1020.3
20260901120519 73 218 5.0 8.0 0.00 0.00 0.00 58 1020.2
20260901115517 72 193 5.0 11.0 0.00 0.00 0.00 58 1020.1
20260901114516 71 223 5.0 11.0 0.00 0.00 0.00 60 1020.1
20260901113554 71 211 6.0 9.0 0.00 0.00 0.00 61 1020.0
20260901113035 70 220 4.0 9.0 0.00 0.00 0.00 60 1020.1
20260901112033 72 216 4.0 8.0 0.00 0.00 0.00 56 1020.2
20260901111019 72 226 4.0 7.0 0.00 0.00 0.00 59 1020.3
20260901110521 71 214 2.0 6.0 0.00 0.00 0.00 59 1020.3
20260901110033 71 247 3.0 7.0 0.00 0.00 0.00 59 1020.3
20260901105031 72 237 5.0 8.0 0.00 0.00 0.00 59 1020.3
20260901104049 71 217 4.0 10.0 0.00 0.00 0.00 60 1020.4
20260901103028 70 260 4.0 9.0 0.00 0.00 0.00 63 1020.6
20260901102106 70 246 2.0 5.0 0.00 0.00 0.00 62 1020.7
20260901101529 70 223 5.0 8.0 0.00 0.00 0.00 62 1020.6
20260901101030 72 189 6.0 6.0 0.00 0.00 0.00 60 1020.6
20260901100518 72 230 4.0 7.0 0.00 0.00 0.00 60 1020.7
20260901095517 72 226 3.0 5.0 0.00 0.00 0.00 61 1020.7
20260901094535 70 233 4.0 6.0 0.00 0.00 0.00 63 1020.7
20260901093614 70 181 5.0 8.0 0.00 0.00 0.00 63 1020.7
20260901092533 69 178 4.0 8.0 0.00 0.00 0.00 65 1020.9
20260901091552 69 204 3.0 6.0 0.00 0.00 0.00 64 1020.8
20260901090530 69 215 4.0 8.0 0.00 0.00 0.00 65 1020.8
20260901085548 69 204 3.0 5.0 0.00 0.00 0.00 67 1020.6
20260901084528 68 220 1.0 4.0 0.00 0.00 0.00 71 1020.7
20260901083536 67 223 2.0 7.0 0.00 0.00 0.00 72 1020.8
20260901082532 65 152 2.0 3.0 0.00 0.00 0.00 75 1020.9
20260901081531 63 173 4.0 7.0 0.00 0.00 0.00 79 1020.8
20260901080529 60 38 2.0 4.0 0.00 0.00 0.00 87 1020.9
20260901075527 59 344 2.0 2.0 0.00 0.00 0.00 88 1020.7
20260901074525 60 61 0.0 2.0 0.00 0.00 0.00 84 1020.6
20260901073523 60 74 1.0 2.0 0.00 0.00 0.00 81 1020.6
20260901072522 61 39 1.0 3.0 0.00 0.00 0.00 79 1020.7
20260901071520 60 45 3.0 5.0 0.00 0.00 0.00 81 1020.5
20260901070538 58 132 1.0 3.0 0.00 0.00 0.00 81 1020.6
20260901065516 58 86 2.0 4.0 0.00 0.00 0.00 81 1020.5
20260901064534 56 55 2.0 2.0 0.00 0.00 0.00 83 1020.4
20260901063532 55 50 3.0 6.0 0.00 0.00 0.00 84 1020.3
20260901062531 54 47 4.0 7.0 0.00 0.00 0.00 86 1020.2
20260901061528 51 52 2.0 3.0 0.00 0.00 0.00 92 1020.2
20260901060527 50 84 1.0 3.0 0.00 0.00 0.00 93 1020.1
20260901055525 50 58 2.0 3.0 0.00 0.00 0.00 92 1020.2
20260901054523 49 46 1.0 3.0 0.00 0.00 0.00 92 1020.0
20260901053541 49 60 2.0 3.0 0.00 0.00 0.00 92 1019.9
20260901052519 50 53 1.0 3.0 0.00 0.00 0.00 92 1019.8
20260901051517 49 143 2.0 4.0 0.00 0.00 0.00 93 1019.8
20260901050516 50 50 3.0 5.0 0.00 0.00 0.00 92 1019.7
20260901045554 50 54 2.0 4.0 0.00 0.00 0.00 91 1019.7
20260901044532 50 73 1.0 3.0 0.00 0.00 0.00 91 1019.7
20260901043531 50 58 1.0 2.0 0.00 0.00 0.00 91 1019.6
20260901042528 50 56 2.0 3.0 0.00 0.00 0.00 91 1019.5
20260901041526 51 63 1.0 3.0 0.00 0.00 0.00 91 1019.5
20260901040524 51 48 3.0 4.0 0.00 0.00 0.00 90 1019.5
20260901035523 51 65 0.0 2.0 0.00 0.00 0.00 90 1019.4
20260901034521 52 40 2.0 4.0 0.00 0.00 0.00 90 1019.5
20260901033519 52 86 1.0 3.0 0.00 0.00 0.00 90 1019.6
20260901032517 52 53 1.0 2.0 0.00 0.00 0.00 90 1019.6
20260901031535 52 93 1.0 2.0 0.00 0.00 0.00 90 1019.5
20260901030533 52 55 2.0 4.0 0.00 0.00 0.00 90 1019.5
20260901025532 52 59 1.0 2.0 0.00 0.00 0.00 90 1019.6
20260901024530 52 75 1.0 3.0 0.00 0.00 0.00 89 1019.6